Regional Weather Roundup
Issued by NWS Charleston, WV

Home | Current Version | Previous Version | Graphics & Text | Print | Product List | Glossary On
Versions: 1 2 3 4 5 6 7 8 9 10 11 12 13 14 15 16 17 18 19 20 21 22 23 24 25 26 27
000
ASUS41 KRLX 270010
RWRRLX
West Virginia Regional Weather Roundup
National Weather Service Charleston WV
800 PM EDT FRI MAY 26 2017

Note: "fair" indicates few or no clouds below 12,000 feet with no
significant weather and/or obstructions to visibility.

WVZ003-270100-
Northern Panhandle of West Virginia

CITY           SKY/WX    TMP DP  RH WIND       PRES   REMARKS
WHEELING       PTCLDY    67  52  58 NW7       29.90R
$$

WVZ009-270100-
Northwest West Virginia

CITY           SKY/WX    TMP DP  RH WIND       PRES   REMARKS
PARKERSBURG    CLEAR     73  55  53 W3        29.93R
$$

WVZ006-270100-
Western West Virginia

CITY           SKY/WX    TMP DP  RH WIND       PRES   REMARKS
HUNTINGTON     CLEAR     75  54  47 SW5       29.91S
$$

WVZ015-270100-
West Central West Virginia

CITY           SKY/WX    TMP DP  RH WIND       PRES   REMARKS
CHARLESTON     PTCLDY    74  54  49 SW6       29.92R
$$

WVZ022-031-270100-
North Central West Virginia

CITY           SKY/WX    TMP DP  RH WIND       PRES   REMARKS
CLARKSBURG     CLEAR     69  54  58 W5        29.91R
MORGANTOWN     PTCLDY    70  52  52 VRB3      29.91R
$$

WVZ025-035-042-045-270100-
Southern West Virginia

CITY           SKY/WX    TMP DP  RH WIND       PRES   REMARKS
BECKLEY        CLEAR     67  51  56 W7        29.99R
LOGAN            N/A     72  54  53 CALM      29.96S
BLUEFIELD      CLEAR     66  48  52 W7        30.01R
LEWISBURG      CLEAR     67  51  55 W6        29.98S
$$

WVZ047-270100-
Northern Mountains of West Virginia

CITY           SKY/WX    TMP DP  RH WIND       PRES   REMARKS
ELKINS         PTCLDY    67  51  56 W5        29.95R
$$

WVZ052-270100-
Eastern Panhandle of West Virginia

CITY           SKY/WX    TMP DP  RH WIND       PRES   REMARKS
MARTINSBURG    PTCLDY    68  53  58 NW5       29.87R
PETERSBURG     CLEAR     70  55  58 W6        29.91R
$$




USA.gov is the U.S. government's official web portal to all federal, state and local government web resources and services.